SIA231 WSSS-YSSY

Flight info

Callsign SIA231
Flight time 6h 55m
Altitude 37000
Route IDBUD1A IDBUD T24 SURGA M635 BLI G326 GUNAM/N0483F390 G326 VINAX T74 VEPAP Y105 TARAL Y59 RIVET
Aircraft A388/J-SDE1E2E3GHIJ2J4J5M1P2RWXYZ/LB1D1

Departure

Time 2026-05-04 17:59
Airport Singapore Changi Airport (WSSS)

Arrival

Time 2026-05-05 00:54
Airport Sydney Kingsford Smith International Airport (YSSY)
Time Latitude Longitude Altitude Speed Heading
2026-05-04 17:34 1.35774 103.98514 30 ft 0 kts 70°
2026-05-04 17:45 1.35772 103.98508 30 ft 4 kts 71°
2026-05-04 17:45 1.35764 103.98482 30 ft 4 kts 74°
2026-05-04 17:45 1.35755 103.98458 30 ft 4 kts 62°
2026-05-04 17:46 1.35742 103.98443 30 ft 3 kts 30°
2026-05-04 17:46 1.35722 103.98435 30 ft 4 kts
2026-05-04 17:46 1.35708 103.98438 30 ft 4 kts 317°
2026-05-04 17:46 1.35696 103.98457 30 ft 4 kts 292°
2026-05-04 17:47 1.35688 103.98478 30 ft 0 kts 292°
2026-05-04 17:47 1.35687 103.98478 30 ft 0 kts 292°
2026-05-04 17:50 1.35691 103.98470 30 ft 4 kts 292°
2026-05-04 17:50 1.35711 103.98430 30 ft 8 kts 310°
2026-05-04 17:50 1.35764 103.98409 30 ft 9 kts 11°
2026-05-04 17:51 1.35834 103.98436 30 ft 13 kts 22°
2026-05-04 17:51 1.35924 103.98474 30 ft 15 kts 22°
2026-05-04 17:51 1.36025 103.98516 30 ft 16 kts 22°
2026-05-04 17:51 1.36132 103.98561 30 ft 17 kts 22°
2026-05-04 17:52 1.36246 103.98609 30 ft 18 kts 22°
2026-05-04 17:52 1.36362 103.98658 30 ft 17 kts 22°
2026-05-04 17:52 1.36473 103.98704 30 ft 18 kts 22°
2026-05-04 17:52 1.36585 103.98751 30 ft 17 kts 22°
2026-05-04 17:53 1.36698 103.98798 30 ft 18 kts 22°
2026-05-04 17:53 1.36765 103.98825 30 ft 11 kts 11°
2026-05-04 17:53 1.36828 103.98801 30 ft 10 kts 308°
2026-05-04 17:53 1.36881 103.98778 31 ft 9 kts
2026-05-04 17:54 1.36948 103.98804 30 ft 12 kts 23°
2026-05-04 17:54 1.37033 103.98839 30 ft 14 kts 23°
2026-05-04 17:54 1.37131 103.98880 30 ft 16 kts 23°
2026-05-04 17:54 1.37238 103.98926 30 ft 17 kts 23°
2026-05-04 17:55 1.37333 103.98966 30 ft 16 kts 23°
2026-05-04 17:55 1.37438 103.99009 31 ft 17 kts 21°
2026-05-04 17:55 1.37549 103.99054 31 ft 18 kts 22°
2026-05-04 17:55 1.37668 103.99104 30 ft 19 kts 22°
2026-05-04 17:56 1.37794 103.99156 30 ft 20 kts 22°
2026-05-04 17:56 1.37910 103.99205 30 ft 17 kts 23°
2026-05-04 17:56 1.38023 103.99253 30 ft 18 kts 23°
2026-05-04 17:56 1.38086 103.99278 30 ft 9 kts 12°
2026-05-04 17:57 1.38145 103.99259 30 ft 9 kts 301°
2026-05-04 17:57 1.38172 103.99196 30 ft 9 kts 292°
2026-05-04 17:57 1.38189 103.99139 30 ft 5 kts 248°
2026-05-04 17:57 1.38165 103.99121 30 ft 6 kts 201°
2026-05-04 17:58 1.38150 103.99115 30 ft 4 kts 202°
2026-05-04 17:58 1.38078 103.99085 30 ft 32 kts 202°
2026-05-04 17:58 1.37634 103.98900 33 ft 104 kts 204°
2026-05-04 17:58 1.36793 103.98543 32 ft 155 kts 203°
2026-05-04 17:59 1.35721 103.98082 178 ft 174 kts 201°
2026-05-04 17:59 1.34627 103.97635 716 ft 171 kts 202°
2026-05-04 17:59 1.32334 103.96686 1347 ft 190 kts 203°
2026-05-04 18:00 1.31072 103.96149 1482 ft 207 kts 203°
2026-05-04 18:00 1.29673 103.95547 1741 ft 230 kts 204°
2026-05-04 18:00 1.28153 103.94889 2071 ft 252 kts 203°
2026-05-04 18:00 1.26464 103.94168 2592 ft 265 kts 202°
2026-05-04 18:01 1.25624 103.93818 2968 ft 267 kts 202°
2026-05-04 18:01 1.23845 103.93294 3713 ft 269 kts 184°
2026-05-04 18:01 1.21989 103.93516 4467 ft 271 kts 160°
2026-05-04 18:02 1.18388 103.94810 5893 ft 280 kts 161°
2026-05-04 18:02 1.16526 103.95445 6215 ft 285 kts 161°
2026-05-04 18:02 1.14676 103.96077 6962 ft 284 kts 161°
2026-05-04 18:02 1.12773 103.96718 7703 ft 287 kts 161°
2026-05-04 18:03 1.10913 103.97472 8362 ft 291 kts 152°
2026-05-04 18:03 1.09206 103.98575 9051 ft 294 kts 141°
2026-05-04 18:03 1.07614 103.99847 9768 ft 294 kts 142°
2026-05-04 18:03 1.05991 104.01107 10432 ft 297 kts 142°
2026-05-04 18:04 1.04320 104.02425 10698 ft 315 kts 138°
2026-05-04 18:04 1.02821 104.04090 10876 ft 332 kts 125°
2026-05-04 18:04 1.00782 104.08384 11638 ft 351 kts 112°
2026-05-04 18:05 0.99837 104.10636 12266 ft 353 kts 113°
2026-05-04 18:05 0.98874 104.12895 12889 ft 354 kts 113°
2026-05-04 18:05 0.97907 104.15164 13484 ft 356 kts 113°
2026-05-04 18:05 0.96940 104.17449 14055 ft 358 kts 112°
2026-05-04 18:06 0.94976 104.22065 15163 ft 364 kts 116°
2026-05-04 18:06 0.93500 104.24126 15706 ft 367 kts 135°
2026-05-04 18:06 0.91594 104.25814 16188 ft 371 kts 138°
2026-05-04 18:07 0.89754 104.27383 16671 ft 373 kts 139°
2026-05-04 18:07 0.87772 104.29071 17193 ft 376 kts 138°
2026-05-04 18:07 0.85779 104.30779 17676 ft 378 kts 138°
2026-05-04 18:08 0.83777 104.32506 18131 ft 381 kts 137°
2026-05-04 18:08 0.81768 104.34244 18591 ft 384 kts 137°
2026-05-04 18:08 0.79741 104.36000 19014 ft 387 kts 137°
2026-05-04 18:08 0.77699 104.37768 19444 ft 390 kts 137°
2026-05-04 18:09 0.73567 104.41346 20251 ft 396 kts 137°
2026-05-04 18:09 0.69380 104.44971 21021 ft 401 kts 137°
2026-05-04 18:10 0.67264 104.46803 21390 ft 404 kts 137°
2026-05-04 18:10 0.65140 104.48642 21758 ft 406 kts 137°
2026-05-04 18:10 0.62995 104.50500 22103 ft 409 kts 137°
2026-05-04 18:10 0.60844 104.52364 22457 ft 411 kts 137°
2026-05-04 18:11 0.58676 104.54241 22794 ft 414 kts 137°
2026-05-04 18:11 0.56496 104.56129 23147 ft 416 kts 137°
2026-05-04 18:11 0.54304 104.58027 23470 ft 418 kts 137°
2026-05-04 18:11 0.52101 104.59935 23777 ft 421 kts 137°
2026-05-04 18:12 0.49885 104.61856 24101 ft 423 kts 136°
2026-05-04 18:12 0.47807 104.63937 24396 ft 424 kts 129°
2026-05-04 18:12 0.45997 104.66259 24728 ft 424 kts 123°
2026-05-04 18:12 0.44460 104.68774 25028 ft 425 kts 118°
2026-05-04 18:13 0.42994 104.71350 25320 ft 427 kts 118°
2026-05-04 18:13 0.41506 104.73928 25622 ft 429 kts 119°
2026-05-04 18:13 0.38519 104.79082 26209 ft 434 kts 119°
2026-05-04 18:14 0.37008 104.81691 26522 ft 435 kts 119°
2026-05-04 18:14 0.35490 104.84315 26831 ft 437 kts 119°
2026-05-04 18:14 0.33964 104.86952 27138 ft 439 kts 119°
2026-05-04 18:15 0.30895 104.92261 27767 ft 443 kts 119°
2026-05-04 18:15 0.28587 104.96257 28252 ft 446 kts 119°
2026-05-04 18:15 0.27031 104.98949 28585 ft 448 kts 119°
2026-05-04 18:16 0.25466 105.01653 28914 ft 450 kts 119°
2026-05-04 18:16 0.23890 105.04375 29238 ft 453 kts 119°
2026-05-04 18:16 0.22315 105.07102 29581 ft 455 kts 119°
2026-05-04 18:17 0.19129 105.12609 30298 ft 460 kts 119°
2026-05-04 18:17 0.17525 105.15384 30656 ft 463 kts 119°
2026-05-04 18:17 0.14279 105.20986 31437 ft 468 kts 119°
2026-05-04 18:18 0.12643 105.23813 31754 ft 472 kts 119°
2026-05-04 18:18 0.11001 105.26659 32120 ft 474 kts 119°
2026-05-04 18:18 0.09350 105.29518 32458 ft 476 kts 119°
2026-05-04 18:18 0.07693 105.32387 32792 ft 479 kts 119°
2026-05-04 18:19 0.04341 105.38184 33457 ft 484 kts 119°
2026-05-04 18:19 0.02657 105.41096 33780 ft 486 kts 119°
2026-05-04 18:19 0.00962 105.44027 34089 ft 488 kts 119°
2026-05-04 18:20 -0.00742 105.46973 34426 ft 490 kts 119°
2026-05-04 18:20 -0.02449 105.49925 34795 ft 491 kts 119°
2026-05-04 18:20 -0.04155 105.52875 35226 ft 490 kts 119°
2026-05-04 18:20 -0.05860 105.55824 35708 ft 489 kts 119°
2026-05-04 18:21 -0.07560 105.58761 36135 ft 488 kts 119°
2026-05-04 18:21 -0.09257 105.61693 36539 ft 487 kts 119°
2026-05-04 18:21 -0.10949 105.64620 36876 ft 489 kts 119°
2026-05-04 18:21 -0.12656 105.67575 36904 ft 491 kts 119°
2026-05-04 18:22 -0.16061 105.73463 36909 ft 489 kts 119°
2026-05-04 18:22 -0.19465 105.79349 36909 ft 489 kts 119°
2026-05-04 18:23 -0.22867 105.85233 36910 ft 489 kts 119°
2026-05-04 18:23 -0.26265 105.91108 36904 ft 488 kts 119°
2026-05-04 18:24 -0.29636 105.96937 36914 ft 488 kts 119°
2026-05-04 18:24 -0.33030 106.02806 36917 ft 487 kts 119°
2026-05-04 18:25 -0.36418 106.08667 36910 ft 487 kts 119°
2026-05-04 18:25 -0.39803 106.14526 36913 ft 487 kts 119°
2026-05-04 18:26 -0.43187 106.20378 36920 ft 486 kts 119°
2026-05-04 18:26 -0.46569 106.26223 36912 ft 486 kts 119°
2026-05-04 18:27 -0.49945 106.32060 36928 ft 485 kts 119°
2026-05-04 18:27 -0.53324 106.37900 36909 ft 485 kts 119°
2026-05-04 18:28 -0.56700 106.43740 36906 ft 485 kts 119°
2026-05-04 18:28 -0.59525 106.48631 36911 ft 485 kts 119°
2026-05-04 18:29 -0.63335 106.54186 36907 ft 486 kts 129°
2026-05-04 18:29 -0.67839 106.59225 36912 ft 486 kts 130°
2026-05-04 18:30 -0.74552 106.66806 36902 ft 485 kts 130°
2026-05-04 18:31 -0.79023 106.71848 36927 ft 485 kts 130°
2026-05-04 18:31 -0.83494 106.76889 36930 ft 484 kts 130°
2026-05-04 18:32 -0.87961 106.81924 36927 ft 484 kts 130°
2026-05-04 18:32 -0.92423 106.86955 36922 ft 483 kts 130°
2026-05-04 18:33 -0.96849 106.91946 36894 ft 483 kts 130°
2026-05-04 18:33 -1.01307 106.96970 36890 ft 483 kts 130°
2026-05-04 18:34 -1.05760 107.01994 36885 ft 483 kts 130°
2026-05-04 18:34 -1.10214 107.07016 36887 ft 483 kts 130°
2026-05-04 18:35 -1.14669 107.12038 36887 ft 483 kts 130°
2026-05-04 18:35 -1.19126 107.17065 36889 ft 483 kts 130°
2026-05-04 18:36 -1.23588 107.22095 36902 ft 484 kts 130°
2026-05-04 18:36 -1.28049 107.27126 36898 ft 484 kts 130°
2026-05-04 18:37 -1.32519 107.32168 36914 ft 485 kts 130°
2026-05-04 18:37 -1.36995 107.37216 36918 ft 485 kts 130°
2026-05-04 18:38 -1.41417 107.42315 36909 ft 485 kts 129°
2026-05-04 18:38 -1.45818 107.47439 36914 ft 486 kts 129°
2026-05-04 18:39 -1.50230 107.52556 36918 ft 486 kts 130°
2026-05-04 18:39 -1.54644 107.57672 36901 ft 486 kts 130°
2026-05-04 18:40 -1.59061 107.62792 36912 ft 486 kts 130°
2026-05-04 18:40 -1.63480 107.67915 36905 ft 486 kts 130°
2026-05-04 18:41 -1.67901 107.73035 36900 ft 486 kts 130°
2026-05-04 18:41 -1.72291 107.78123 36902 ft 487 kts 130°
2026-05-04 18:42 -1.76745 107.83287 36903 ft 487 kts 130°
2026-05-04 18:42 -1.81139 107.88379 36907 ft 487 kts 130°
2026-05-04 18:43 -1.85565 107.93509 36894 ft 488 kts 130°
2026-05-04 18:43 -1.89994 107.98644 36891 ft 488 kts 130°
2026-05-04 18:44 -1.94421 108.03783 36886 ft 488 kts 130°
2026-05-04 18:44 -1.98850 108.08919 36895 ft 487 kts 130°
2026-05-04 18:45 -2.03279 108.14056 36896 ft 488 kts 130°
2026-05-04 18:45 -2.07705 108.19187 36896 ft 488 kts 130°
2026-05-04 18:46 -2.12136 108.24319 36889 ft 487 kts 130°
2026-05-04 18:46 -2.16566 108.29455 36890 ft 487 kts 130°
2026-05-04 18:47 -2.20997 108.34590 36888 ft 487 kts 130°
2026-05-04 18:47 -2.25421 108.39719 36887 ft 487 kts 130°
2026-05-04 18:48 -2.29847 108.44854 36889 ft 487 kts 130°
2026-05-04 18:48 -2.34276 108.49988 36888 ft 487 kts 130°
2026-05-04 18:49 -2.38703 108.55121 36885 ft 487 kts 130°
2026-05-04 18:49 -2.43132 108.60256 36888 ft 487 kts 130°
2026-05-04 18:50 -2.47559 108.65391 36883 ft 488 kts 130°
2026-05-04 18:50 -2.51995 108.70527 36889 ft 488 kts 130°
2026-05-04 18:51 -2.56436 108.75658 36891 ft 488 kts 130°
2026-05-04 18:51 -2.60881 108.80796 36892 ft 488 kts 130°
2026-05-04 18:52 -2.65322 108.85933 36902 ft 488 kts 130°
2026-05-04 18:52 -2.69764 108.91069 36901 ft 488 kts 130°
2026-05-04 18:53 -2.74209 108.96204 36901 ft 488 kts 130°
2026-05-04 18:53 -2.78649 109.01339 36896 ft 488 kts 130°
2026-05-04 18:54 -2.83093 109.06480 36893 ft 489 kts 130°
2026-05-04 18:54 -2.87539 109.11622 36897 ft 488 kts 130°
2026-05-04 18:55 -2.91980 109.16767 36902 ft 488 kts 130°
2026-05-04 18:55 -2.98630 109.24498 36902 ft 489 kts 130°
2026-05-04 18:56 -3.03064 109.29649 36900 ft 488 kts 130°
2026-05-04 18:56 -3.07466 109.34765 36892 ft 488 kts 129°
2026-05-04 18:57 -3.11923 109.39948 36897 ft 488 kts 129°
2026-05-04 18:57 -3.16320 109.45058 36904 ft 488 kts 130°
2026-05-04 18:58 -3.20750 109.50204 36893 ft 488 kts 129°
2026-05-04 18:58 -3.25177 109.55353 36892 ft 488 kts 129°
2026-05-04 18:59 -3.29602 109.60499 36894 ft 488 kts 129°
2026-05-04 18:59 -3.34026 109.65645 36899 ft 487 kts 129°
2026-05-04 19:00 -3.38448 109.70790 36895 ft 487 kts 129°
2026-05-04 19:00 -3.42895 109.75964 36897 ft 487 kts 129°
2026-05-04 19:01 -3.47281 109.81069 36889 ft 487 kts 129°
2026-05-04 19:01 -3.51698 109.86210 36894 ft 487 kts 129°
2026-05-04 19:02 -3.56115 109.91349 36893 ft 487 kts 129°
2026-05-04 19:02 -3.60531 109.96487 36893 ft 487 kts 129°
2026-05-04 19:03 -3.64945 110.01627 36888 ft 487 kts 129°
2026-05-04 19:03 -3.69360 110.06768 36892 ft 486 kts 129°
2026-05-04 19:04 -3.73764 110.11898 36890 ft 486 kts 129°
2026-05-04 19:04 -3.78170 110.17032 36884 ft 486 kts 129°
2026-05-04 19:05 -3.82576 110.22166 36880 ft 486 kts 129°
2026-05-04 19:05 -3.86984 110.27302 36875 ft 486 kts 129°
2026-05-04 19:06 -3.91390 110.32437 36879 ft 486 kts 129°
2026-05-04 19:06 -3.95797 110.37574 36876 ft 486 kts 129°
2026-05-04 19:07 -3.99966 110.42894 36875 ft 485 kts 126°
2026-05-04 19:07 -4.04098 110.48246 36874 ft 486 kts 127°
2026-05-04 19:08 -4.08231 110.53593 36878 ft 486 kts 126°
2026-05-04 19:08 -4.12368 110.58950 36881 ft 486 kts 126°
2026-05-04 19:09 -4.16505 110.64311 36874 ft 486 kts 127°
2026-05-04 19:09 -4.20646 110.69678 36874 ft 487 kts 127°
2026-05-04 19:10 -4.24788 110.75046 36880 ft 487 kts 127°
2026-05-04 19:10 -4.28929 110.80413 36879 ft 487 kts 127°
2026-05-04 19:11 -4.33077 110.85792 36881 ft 487 kts 127°
2026-05-04 19:11 -4.37218 110.91163 36879 ft 487 kts 127°
2026-05-04 19:12 -4.42733 110.98318 36875 ft 488 kts 127°
2026-05-04 19:13 -4.46880 111.03699 36863 ft 488 kts 127°
2026-05-04 19:13 -4.51028 111.09082 36863 ft 488 kts 127°
2026-05-04 19:14 -4.55175 111.14465 36860 ft 488 kts 127°
2026-05-04 19:14 -4.59322 111.19849 36859 ft 488 kts 127°
2026-05-04 19:15 -4.63470 111.25232 36859 ft 488 kts 127°
2026-05-04 19:15 -4.68343 111.31511 36861 ft 488 kts 127°
2026-05-04 19:16 -4.71806 111.35978 36861 ft 488 kts 127°
2026-05-04 19:16 -4.75970 111.41353 36859 ft 488 kts 127°
2026-05-04 19:17 -4.80131 111.46732 36859 ft 488 kts 127°
2026-05-04 19:17 -4.84293 111.52105 36856 ft 488 kts 127°
2026-05-04 19:18 -4.88460 111.57480 36858 ft 488 kts 127°
2026-05-04 19:18 -4.92626 111.62861 36856 ft 489 kts 127°
2026-05-04 19:19 -4.96797 111.68249 36858 ft 489 kts 127°
2026-05-04 19:19 -5.00969 111.73643 36861 ft 489 kts 127°
2026-05-04 19:20 -5.05143 111.79040 36862 ft 490 kts 127°
2026-05-04 19:20 -5.09290 111.84403 36861 ft 490 kts 127°
2026-05-04 19:21 -5.13467 111.89806 36858 ft 490 kts 127°
2026-05-04 19:21 -5.17649 111.95213 36860 ft 491 kts 127°
2026-05-04 19:22 -5.21859 112.00657 36862 ft 491 kts 127°
2026-05-04 19:22 -5.26040 112.06073 36860 ft 491 kts 127°
2026-05-04 19:23 -5.30194 112.11455 36863 ft 491 kts 127°
2026-05-04 19:23 -5.34382 112.16874 36862 ft 491 kts 127°
2026-05-04 19:24 -5.38566 112.22291 36861 ft 491 kts 127°
2026-05-04 19:24 -5.42750 112.27714 36859 ft 491 kts 127°
2026-05-04 19:25 -5.46932 112.33135 36857 ft 491 kts 127°
2026-05-04 19:25 -5.51115 112.38554 36857 ft 492 kts 127°
2026-05-04 19:26 -5.55300 112.43982 36858 ft 492 kts 127°
2026-05-04 19:26 -5.59488 112.49414 36860 ft 492 kts 127°
2026-05-04 19:27 -5.63675 112.54847 36862 ft 492 kts 127°
2026-05-04 19:27 -5.67865 112.60282 36861 ft 492 kts 127°
2026-05-04 19:28 -5.72054 112.65718 36866 ft 492 kts 127°
2026-05-04 19:28 -5.76240 112.71154 36864 ft 492 kts 127°
2026-05-04 19:29 -5.80419 112.76582 36863 ft 491 kts 127°
2026-05-04 19:29 -5.84600 112.82012 36860 ft 491 kts 127°
2026-05-04 19:30 -5.88777 112.87440 36859 ft 491 kts 127°
2026-05-04 19:30 -5.92951 112.92867 36860 ft 491 kts 127°
2026-05-04 19:31 -5.97126 112.98293 36857 ft 491 kts 127°
2026-05-04 19:31 -6.01301 113.03723 36859 ft 491 kts 127°
2026-05-04 19:32 -6.05477 113.09155 36852 ft 491 kts 127°
2026-05-04 19:32 -6.09658 113.14594 36848 ft 492 kts 127°
2026-05-04 19:33 -6.13838 113.20033 36852 ft 492 kts 127°
2026-05-04 19:33 -6.18027 113.25486 36859 ft 493 kts 127°
2026-05-04 19:34 -6.22218 113.30946 36862 ft 493 kts 128°
2026-05-04 19:34 -6.26967 113.35913 36861 ft 494 kts 140°
2026-05-04 19:35 -6.32509 113.39988 36864 ft 494 kts 144°
2026-05-04 19:35 -6.38088 113.44022 36864 ft 494 kts 144°
2026-05-04 19:36 -6.43668 113.48058 36865 ft 494 kts 144°
2026-05-04 19:36 -6.49249 113.52089 36865 ft 494 kts 144°
2026-05-04 19:37 -6.54824 113.56113 36863 ft 494 kts 144°
2026-05-04 19:37 -6.60401 113.60145 36863 ft 493 kts 144°
2026-05-04 19:38 -6.65972 113.64175 36859 ft 493 kts 144°
2026-05-04 19:38 -6.71545 113.68200 36860 ft 493 kts 144°
2026-05-04 19:39 -6.77114 113.72226 36859 ft 493 kts 144°
2026-05-04 19:39 -6.82678 113.76250 36855 ft 493 kts 144°
2026-05-04 19:40 -6.88246 113.80279 36856 ft 493 kts 144°
2026-05-04 19:40 -6.93819 113.84310 36851 ft 493 kts 144°
2026-05-04 19:41 -6.99387 113.88344 36854 ft 493 kts 144°
2026-05-04 19:41 -7.04961 113.92382 36856 ft 494 kts 144°
2026-05-04 19:42 -7.10535 113.96425 36860 ft 494 kts 144°
2026-05-04 19:42 -7.16078 114.00444 36863 ft 494 kts 144°
2026-05-04 19:43 -7.21660 114.04495 36867 ft 494 kts 144°
2026-05-04 19:43 -7.27233 114.08543 36867 ft 494 kts 145°
2026-05-04 19:44 -7.32811 114.12591 36870 ft 494 kts 145°
2026-05-04 19:44 -7.38388 114.16640 36868 ft 494 kts 145°
2026-05-04 19:45 -7.43960 114.20689 36867 ft 494 kts 145°
2026-05-04 19:45 -7.49532 114.24739 36867 ft 494 kts 145°
2026-05-04 19:46 -7.55104 114.28788 36868 ft 494 kts 145°
2026-05-04 19:46 -7.60679 114.32843 36871 ft 494 kts 145°
2026-05-04 19:47 -7.66248 114.36895 36868 ft 494 kts 145°
2026-05-04 19:47 -7.71828 114.40954 36871 ft 494 kts 145°
2026-05-04 19:48 -7.77398 114.45008 36871 ft 494 kts 145°
2026-05-04 19:48 -7.82980 114.49074 36871 ft 494 kts 145°
2026-05-04 19:49 -7.88550 114.53132 36877 ft 494 kts 145°
2026-05-04 19:49 -7.94125 114.57193 36878 ft 494 kts 145°
2026-05-04 19:50 -7.99698 114.61254 36880 ft 494 kts 145°
2026-05-04 19:50 -8.05269 114.65317 36875 ft 494 kts 145°
2026-05-04 19:51 -8.10840 114.69381 36874 ft 494 kts 145°
2026-05-04 19:51 -8.16405 114.73441 36873 ft 494 kts 145°
2026-05-04 19:52 -8.21975 114.77505 36880 ft 494 kts 145°
2026-05-04 19:52 -8.27545 114.81573 36881 ft 494 kts 145°
2026-05-04 19:53 -8.33111 114.85638 36885 ft 494 kts 145°
2026-05-04 19:53 -8.38681 114.89709 36879 ft 494 kts 145°
2026-05-04 19:54 -8.44207 114.93749 36887 ft 494 kts 145°
2026-05-04 19:54 -8.49765 114.97813 36888 ft 494 kts 145°
2026-05-04 19:55 -8.55325 115.01881 36890 ft 493 kts 145°
2026-05-04 19:55 -8.60881 115.05948 36885 ft 493 kts 145°
2026-05-04 19:56 -8.66430 115.10010 36885 ft 493 kts 146°
2026-05-04 19:56 -8.71947 115.14118 36884 ft 493 kts 141°
2026-05-04 19:57 -8.76646 115.19178 36881 ft 496 kts 127°
2026-05-04 19:57 -8.80290 115.25117 36883 ft 497 kts 122°
2026-05-04 19:58 -8.83264 115.30090 36882 ft 498 kts 122°
2026-05-04 19:58 -8.86849 115.36081 36887 ft 498 kts 122°
2026-05-04 19:59 -8.90427 115.42078 36889 ft 498 kts 122°
2026-05-04 19:59 -8.94003 115.48080 36890 ft 498 kts 122°
2026-05-04 20:00 -8.97578 115.54080 36891 ft 498 kts 122°
2026-05-04 20:00 -9.01150 115.60077 36885 ft 498 kts 122°
2026-05-04 20:01 -9.04725 115.66084 36894 ft 498 kts 122°
2026-05-04 20:01 -9.08298 115.72090 36887 ft 498 kts 122°
2026-05-04 20:02 -9.11871 115.78100 36903 ft 499 kts 122°
2026-05-04 20:02 -9.15447 115.84115 36903 ft 499 kts 122°
2026-05-04 20:03 -9.19023 115.90137 36903 ft 499 kts 122°
2026-05-04 20:03 -9.22597 115.96158 36916 ft 500 kts 122°
2026-05-04 20:04 -9.26174 116.02187 36902 ft 499 kts 122°
2026-05-04 20:04 -9.29755 116.08217 36915 ft 500 kts 122°
2026-05-04 20:05 -9.33333 116.14246 36910 ft 500 kts 122°
2026-05-04 20:05 -9.36912 116.20287 36907 ft 500 kts 122°
2026-05-04 20:06 -9.40490 116.26327 36913 ft 500 kts 122°
2026-05-04 20:06 -9.44065 116.32368 36911 ft 500 kts 123°
2026-05-04 20:07 -9.47616 116.38368 36903 ft 500 kts 122°
2026-05-04 20:07 -9.51189 116.44412 36901 ft 500 kts 122°
2026-05-04 20:08 -9.54763 116.50456 36912 ft 500 kts 122°
2026-05-04 20:08 -9.58333 116.56498 36899 ft 500 kts 122°
2026-05-04 20:09 -9.61931 116.62589 36908 ft 500 kts 122°
2026-05-04 20:09 -9.65478 116.68599 36913 ft 500 kts 122°
2026-05-04 20:10 -9.69048 116.74649 36912 ft 500 kts 122°
2026-05-04 20:10 -9.72618 116.80700 36917 ft 500 kts 122°
2026-05-04 20:11 -9.76189 116.86744 36914 ft 500 kts 123°
2026-05-04 20:11 -9.79773 116.92777 36908 ft 500 kts 123°
2026-05-04 20:12 -9.83356 116.98818 36901 ft 500 kts 123°
2026-05-04 20:12 -9.86939 117.04866 36903 ft 500 kts 123°
2026-05-04 20:13 -9.90524 117.10918 36917 ft 500 kts 122°
2026-05-04 20:13 -9.94102 117.16967 36901 ft 500 kts 122°
2026-05-04 20:14 -9.97685 117.23021 36907 ft 501 kts 122°
2026-05-04 20:14 -10.01268 117.29080 36905 ft 501 kts 122°
2026-05-04 20:15 -10.04848 117.35152 36896 ft 502 kts 122°
2026-05-04 20:15 -10.08306 117.41315 36895 ft 503 kts 121°
2026-05-04 20:16 -10.11755 117.47494 36901 ft 504 kts 121°
2026-05-04 20:16 -10.15221 117.53674 36905 ft 504 kts 121°
2026-05-04 20:17 -10.18693 117.59855 36922 ft 504 kts 121°
2026-05-04 20:17 -10.22160 117.66034 36921 ft 504 kts 121°
2026-05-04 20:18 -10.25628 117.72218 36929 ft 504 kts 121°
2026-05-04 20:18 -10.29098 117.78403 36927 ft 504 kts 121°
2026-05-04 20:19 -10.32560 117.84586 36927 ft 503 kts 121°
2026-05-04 20:19 -10.36027 117.90770 36905 ft 504 kts 121°
2026-05-04 20:20 -10.39488 117.96954 36924 ft 504 kts 121°
2026-05-04 20:20 -10.42945 118.03135 36908 ft 503 kts 121°
2026-05-04 20:21 -10.46405 118.09320 36928 ft 503 kts 121°
2026-05-04 20:21 -10.51561 118.18556 36911 ft 503 kts 121°
2026-05-04 20:22 -10.55015 118.24740 36907 ft 503 kts 121°
2026-05-04 20:22 -10.58464 118.30922 36926 ft 503 kts 121°
2026-05-04 20:23 -10.61917 118.37113 36911 ft 504 kts 121°
2026-05-04 20:23 -10.65371 118.43309 36909 ft 504 kts 121°
2026-05-04 20:24 -10.68825 118.49508 36929 ft 504 kts 121°
2026-05-04 20:24 -10.72275 118.55709 36929 ft 504 kts 121°
2026-05-04 20:25 -10.75725 118.61912 36929 ft 504 kts 121°
2026-05-04 20:25 -10.79177 118.68117 36932 ft 504 kts 121°
2026-05-04 20:26 -10.82626 118.74323 36932 ft 504 kts 121°
2026-05-04 20:26 -10.86069 118.80523 36934 ft 504 kts 121°
2026-05-04 20:27 -10.89514 118.86729 36936 ft 504 kts 121°
2026-05-04 20:27 -10.92958 118.92942 36932 ft 503 kts 121°
2026-05-04 20:28 -10.96398 118.99137 36933 ft 503 kts 121°
2026-05-04 20:28 -10.99836 119.05346 36932 ft 503 kts 121°
2026-05-04 20:29 -11.03275 119.11557 36934 ft 504 kts 121°
2026-05-04 20:29 -11.06716 119.17768 36934 ft 504 kts 121°
2026-05-04 20:30 -11.10152 119.23986 36937 ft 504 kts 121°
2026-05-04 20:30 -11.13590 119.30206 36938 ft 504 kts 121°
2026-05-04 20:31 -11.17023 119.36420 36935 ft 504 kts 121°
2026-05-04 20:31 -11.20459 119.42640 36934 ft 504 kts 121°
2026-05-04 20:32 -11.23892 119.48863 36933 ft 504 kts 121°
2026-05-04 20:32 -11.27322 119.55091 36930 ft 504 kts 121°
2026-05-04 20:33 -11.30755 119.61318 36933 ft 504 kts 121°
2026-05-04 20:33 -11.34187 119.67555 36932 ft 504 kts 121°
2026-05-04 20:34 -11.37621 119.73791 36936 ft 505 kts 121°
2026-05-04 20:34 -11.41048 119.80023 36931 ft 505 kts 121°
2026-05-04 20:35 -11.44480 119.86266 36934 ft 505 kts 121°
2026-05-04 20:35 -11.47914 119.92514 36934 ft 505 kts 121°
2026-05-04 20:36 -11.51347 119.98769 36936 ft 505 kts 121°
2026-05-04 20:36 -11.54780 120.05026 36940 ft 505 kts 121°
2026-05-04 20:37 -11.58187 120.11238 36939 ft 505 kts 121°
2026-05-04 20:37 -11.61615 120.17498 36938 ft 505 kts 121°
2026-05-04 20:38 -11.65044 120.23759 36935 ft 505 kts 121°
2026-05-04 20:38 -11.68468 120.30015 36933 ft 505 kts 121°
2026-05-04 20:39 -11.71893 120.36278 36934 ft 505 kts 121°
2026-05-04 20:39 -11.75317 120.42543 36936 ft 505 kts 121°
2026-05-04 20:40 -11.78738 120.48808 36935 ft 505 kts 121°
2026-05-04 20:40 -11.82157 120.55071 36940 ft 505 kts 121°
2026-05-04 20:41 -11.85572 120.61331 36935 ft 504 kts 121°
2026-05-04 20:41 -11.88984 120.67587 36934 ft 504 kts 121°
2026-05-04 20:42 -11.92390 120.73836 36932 ft 504 kts 121°
2026-05-04 20:42 -11.95793 120.80090 36936 ft 503 kts 121°
2026-05-04 20:43 -11.98619 120.85284 36936 ft 503 kts 121°
2026-05-04 20:43 -12.02247 120.91374 36910 ft 501 kts 126°
2026-05-04 20:44 -12.06072 120.97338 36929 ft 502 kts 126°
2026-05-04 20:44 -12.09896 121.03321 36935 ft 503 kts 126°
2026-05-04 20:45 -12.13720 121.09308 36933 ft 504 kts 126°
2026-05-04 20:45 -12.17549 121.15309 36937 ft 504 kts 126°
2026-05-04 20:46 -12.21376 121.21311 36939 ft 505 kts 126°
2026-05-04 20:46 -12.25207 121.27324 36944 ft 504 kts 126°
2026-05-04 20:47 -12.29033 121.33336 36945 ft 504 kts 126°
2026-05-04 20:47 -12.32853 121.39344 36950 ft 504 kts 126°
2026-05-04 20:48 -12.36671 121.45346 36946 ft 503 kts 126°
2026-05-04 20:48 -12.40484 121.51346 36943 ft 503 kts 126°
2026-05-04 20:49 -12.44294 121.57345 36943 ft 503 kts 126°
2026-05-04 20:49 -12.48100 121.63342 36942 ft 502 kts 126°
2026-05-04 20:50 -12.51902 121.69336 36941 ft 502 kts 126°
2026-05-04 20:50 -12.55697 121.75326 36938 ft 502 kts 126°
2026-05-04 20:51 -12.59496 121.81322 36940 ft 502 kts 126°
2026-05-04 20:51 -12.63294 121.87324 36938 ft 502 kts 126°
2026-05-04 20:52 -12.67094 121.93330 36938 ft 503 kts 126°
2026-05-04 20:52 -12.70897 121.99346 36935 ft 503 kts 126°
2026-05-04 20:53 -12.74675 122.05326 36937 ft 503 kts 126°
2026-05-04 20:53 -12.78480 122.11351 36938 ft 504 kts 126°
2026-05-04 20:54 -12.82285 122.17384 36935 ft 504 kts 126°
2026-05-04 20:54 -12.86092 122.23420 36935 ft 504 kts 126°
2026-05-04 20:55 -12.89895 122.29455 36932 ft 505 kts 126°
2026-05-04 20:55 -12.93703 122.35503 36929 ft 505 kts 126°
2026-05-04 20:56 -12.97513 122.41557 36932 ft 505 kts 126°
2026-05-04 20:56 -13.01324 122.47620 36937 ft 506 kts 126°
2026-05-04 20:57 -13.05136 122.53686 36945 ft 506 kts 126°
2026-05-04 20:57 -13.08945 122.59752 36945 ft 506 kts 126°
2026-05-04 20:58 -13.12762 122.65830 36944 ft 507 kts 126°
2026-05-04 20:58 -13.16576 122.71912 36948 ft 507 kts 126°
2026-05-04 20:59 -13.20387 122.77998 36948 ft 507 kts 126°
2026-05-04 20:59 -13.24198 122.84080 36943 ft 507 kts 126°
2026-05-04 21:00 -13.28008 122.90170 36946 ft 507 kts 126°
2026-05-04 21:00 -13.31819 122.96264 36942 ft 507 kts 126°
2026-05-04 21:01 -13.35629 123.02360 36943 ft 507 kts 126°
2026-05-04 21:01 -13.39439 123.08460 36939 ft 507 kts 126°
2026-05-04 21:02 -13.43244 123.14558 36943 ft 508 kts 126°
2026-05-04 21:02 -13.47055 123.20670 36941 ft 508 kts 127°
2026-05-04 21:03 -13.50865 123.26785 36944 ft 508 kts 127°
2026-05-04 21:03 -13.54677 123.32907 36941 ft 509 kts 127°
2026-05-04 21:04 -13.58466 123.38993 36942 ft 509 kts 127°
2026-05-04 21:04 -13.62280 123.45129 36946 ft 509 kts 127°
2026-05-04 21:05 -13.66096 123.51267 36945 ft 510 kts 127°
2026-05-04 21:05 -13.69912 123.57411 36948 ft 510 kts 127°
2026-05-04 21:06 -13.73724 123.63556 36956 ft 510 kts 127°
2026-05-04 21:06 -13.77534 123.69698 36953 ft 510 kts 127°
2026-05-04 21:07 -13.81343 123.75846 36949 ft 510 kts 127°
2026-05-04 21:07 -13.85153 123.82000 36951 ft 510 kts 127°
2026-05-04 21:08 -13.88964 123.88159 36943 ft 510 kts 127°
2026-05-04 21:08 -13.92776 123.94325 36944 ft 511 kts 127°
2026-05-04 21:09 -13.96588 124.00494 36945 ft 511 kts 127°
2026-05-04 21:09 -14.00395 124.06662 36947 ft 511 kts 127°
2026-05-04 21:10 -14.04205 124.12838 36947 ft 511 kts 127°
2026-05-04 21:10 -14.08013 124.19015 36944 ft 511 kts 127°
2026-05-04 21:11 -14.11818 124.25191 36944 ft 511 kts 127°
2026-05-04 21:11 -14.15620 124.31371 36941 ft 511 kts 127°
2026-05-04 21:12 -14.19424 124.37554 36938 ft 511 kts 127°
2026-05-04 21:12 -14.23226 124.43739 36946 ft 511 kts 127°
2026-05-04 21:13 -14.27011 124.49901 36947 ft 512 kts 127°
2026-05-04 21:13 -14.30849 124.56155 36948 ft 513 kts 127°
2026-05-04 21:14 -14.34667 124.62383 36951 ft 514 kts 127°
2026-05-04 21:14 -14.38490 124.68621 36957 ft 515 kts 127°
2026-05-04 21:15 -14.42316 124.74869 36953 ft 516 kts 127°
2026-05-04 21:15 -14.46144 124.81130 36956 ft 516 kts 127°
2026-05-04 21:16 -14.49974 124.87396 36957 ft 516 kts 127°
2026-05-04 21:16 -14.53783 124.93629 36986 ft 519 kts 127°
2026-05-04 21:17 -14.55712 124.96788 37387 ft 520 kts 127°
2026-05-04 21:17 -14.57633 124.99937 37775 ft 520 kts 127°
2026-05-04 21:17 -14.59560 125.03098 38154 ft 520 kts 127°
2026-05-04 21:17 -14.61486 125.06257 38540 ft 519 kts 127°
2026-05-04 21:18 -14.63412 125.09415 38867 ft 521 kts 127°
2026-05-04 21:18 -14.65352 125.12594 38952 ft 524 kts 127°
2026-05-04 21:18 -14.69179 125.18881 38952 ft 515 kts 127°
2026-05-04 21:19 -14.73008 125.25178 38952 ft 518 kts 127°
2026-05-04 21:19 -14.76835 125.31489 38953 ft 518 kts 127°
2026-05-04 21:20 -14.80672 125.37810 38953 ft 519 kts 127°
2026-05-04 21:20 -14.84507 125.44137 38952 ft 519 kts 127°
2026-05-04 21:21 -14.88331 125.50449 38940 ft 518 kts 127°
2026-05-04 21:21 -14.92158 125.56773 38942 ft 519 kts 127°
2026-05-04 21:22 -14.95987 125.63103 38949 ft 519 kts 127°
2026-05-04 21:22 -14.99820 125.69444 38941 ft 520 kts 127°
2026-05-04 21:23 -15.03656 125.75794 38952 ft 521 kts 127°
2026-05-04 21:23 -15.07489 125.82151 38952 ft 521 kts 127°
2026-05-04 21:24 -15.11330 125.88524 38951 ft 522 kts 127°
2026-05-04 21:24 -15.15175 125.94910 38953 ft 523 kts 127°
2026-05-04 21:25 -15.19026 126.01304 38954 ft 524 kts 127°
2026-05-04 21:25 -15.22880 126.07712 38960 ft 524 kts 127°
2026-05-04 21:26 -15.26736 126.14127 38966 ft 525 kts 127°
2026-05-04 21:26 -15.30564 126.20507 38964 ft 525 kts 127°
2026-05-04 21:27 -15.34422 126.26943 38963 ft 526 kts 127°
2026-05-04 21:27 -15.38283 126.33384 38966 ft 526 kts 127°
2026-05-04 21:28 -15.42141 126.39822 38968 ft 526 kts 127°
2026-05-04 21:28 -15.45998 126.46272 38966 ft 526 kts 127°
2026-05-04 21:29 -15.49853 126.52722 38967 ft 526 kts 127°
2026-05-04 21:29 -15.53706 126.59174 38964 ft 526 kts 127°
2026-05-04 21:30 -15.56903 126.64531 38963 ft 526 kts 127°
2026-05-04 21:30 -15.61395 126.72067 38961 ft 526 kts 127°
2026-05-04 21:31 -15.66513 126.80655 38957 ft 526 kts 127°
2026-05-04 21:32 -15.70357 126.87116 38957 ft 526 kts 127°
2026-05-04 21:32 -15.74202 126.93584 38956 ft 527 kts 127°
2026-05-04 21:33 -15.78047 127.00056 38959 ft 527 kts 126°
2026-05-04 21:33 -15.81892 127.06538 38971 ft 527 kts 126°
2026-05-04 21:34 -15.85739 127.13026 38974 ft 528 kts 126°
2026-05-04 21:34 -15.89586 127.19518 38974 ft 528 kts 127°
2026-05-04 21:35 -15.93433 127.26017 38969 ft 529 kts 127°
2026-05-04 21:35 -15.97286 127.32529 38974 ft 529 kts 126°
2026-05-04 21:36 -16.01135 127.39048 38970 ft 529 kts 127°
2026-05-04 21:36 -16.04993 127.45582 38962 ft 531 kts 127°
2026-05-04 21:37 -16.08852 127.52127 38966 ft 531 kts 127°
2026-05-04 21:37 -16.12715 127.58683 38971 ft 532 kts 127°
2026-05-04 21:38 -16.16579 127.65248 38977 ft 532 kts 127°
2026-05-04 21:38 -16.20442 127.71816 38977 ft 532 kts 127°
2026-05-04 21:39 -16.24300 127.78381 38982 ft 532 kts 127°
2026-05-04 21:39 -16.28158 127.84955 38980 ft 532 kts 127°
2026-05-04 21:40 -16.32011 127.91525 38975 ft 531 kts 126°
2026-05-04 21:40 -16.35861 127.98095 38970 ft 532 kts 127°
2026-05-04 21:41 -16.39710 128.04667 38965 ft 532 kts 126°
2026-05-04 21:41 -16.43559 128.11249 38969 ft 532 kts 127°
2026-05-04 21:42 -16.47384 128.17789 38971 ft 532 kts 126°
2026-05-04 21:42 -16.51255 128.24421 38974 ft 532 kts 126°
2026-05-04 21:43 -16.55077 128.30968 38969 ft 532 kts 127°
2026-05-04 21:43 -16.58922 128.37566 38971 ft 532 kts 126°
2026-05-04 21:44 -16.62761 128.44158 38971 ft 532 kts 126°
2026-05-04 21:44 -16.66502 128.50839 38967 ft 534 kts 124°
2026-05-04 21:45 -16.70146 128.57593 38968 ft 534 kts 124°
2026-05-04 21:45 -16.73813 128.64330 38976 ft 534 kts 125°
2026-05-04 21:46 -16.77485 128.71054 38974 ft 534 kts 125°
2026-05-04 21:46 -16.81161 128.77789 38971 ft 534 kts 125°
2026-05-04 21:47 -16.84834 128.84529 38971 ft 534 kts 125°
2026-05-04 21:47 -16.88507 128.91274 38969 ft 534 kts 125°
2026-05-04 21:48 -16.92178 128.98026 38967 ft 535 kts 125°
2026-05-04 21:48 -16.95850 129.04786 38971 ft 535 kts 125°
2026-05-04 21:49 -16.99520 129.11549 38972 ft 535 kts 125°
2026-05-04 21:49 -17.03190 129.18319 38969 ft 536 kts 125°
2026-05-04 21:50 -17.06861 129.25088 38971 ft 536 kts 125°
2026-05-04 21:50 -17.10528 129.31870 38980 ft 536 kts 125°
2026-05-04 21:51 -17.14191 129.38652 38982 ft 536 kts 125°
2026-05-04 21:51 -17.17856 129.45432 38978 ft 536 kts 124°
2026-05-04 21:52 -17.21524 129.52229 38976 ft 537 kts 124°
2026-05-04 21:52 -17.25192 129.59036 38976 ft 537 kts 125°
2026-05-04 21:53 -17.28860 129.65852 38979 ft 538 kts 124°
2026-05-04 21:53 -17.32502 129.72624 38980 ft 538 kts 124°
2026-05-04 21:54 -17.36171 129.79450 38981 ft 538 kts 124°
2026-05-04 21:54 -17.39840 129.86286 38979 ft 539 kts 124°
2026-05-04 21:55 -17.43509 129.93127 38986 ft 539 kts 124°
2026-05-04 21:55 -17.47175 129.99970 38983 ft 539 kts 124°
2026-05-04 21:56 -17.50842 130.06826 38987 ft 540 kts 124°
2026-05-04 21:56 -17.54515 130.13697 38983 ft 540 kts 124°
2026-05-04 21:57 -17.58188 130.20574 38990 ft 541 kts 124°
2026-05-04 21:57 -17.61858 130.27455 38991 ft 541 kts 124°
2026-05-04 21:58 -17.65532 130.34350 38993 ft 542 kts 124°
2026-05-04 21:58 -17.69204 130.41249 38994 ft 542 kts 124°
2026-05-04 21:59 -17.72871 130.48150 39000 ft 541 kts 124°
2026-05-04 21:59 -17.76533 130.55043 39010 ft 541 kts 124°
2026-05-04 22:00 -17.80191 130.61938 39011 ft 541 kts 124°
2026-05-04 22:00 -17.83846 130.68834 38999 ft 541 kts 124°
2026-05-04 22:01 -17.87498 130.75731 38996 ft 541 kts 124°
2026-05-04 22:01 -17.91149 130.82636 39001 ft 541 kts 124°
2026-05-04 22:02 -17.94796 130.89539 39017 ft 541 kts 124°
2026-05-04 22:02 -17.98442 130.96450 39000 ft 541 kts 124°
2026-05-04 22:03 -18.02086 131.03367 38993 ft 541 kts 124°
2026-05-04 22:03 -18.05738 131.10296 38993 ft 542 kts 124°
2026-05-04 22:04 -18.09387 131.17233 39002 ft 543 kts 124°
2026-05-04 22:04 -18.13044 131.24193 39011 ft 544 kts 124°
2026-05-04 22:05 -18.16704 131.31167 39016 ft 545 kts 124°
2026-05-04 22:05 -18.20364 131.38149 39008 ft 546 kts 124°
2026-05-04 22:06 -18.24029 131.45147 39035 ft 546 kts 124°
2026-05-04 22:06 -18.27692 131.52150 39045 ft 546 kts 124°
2026-05-04 22:07 -18.31350 131.59151 39043 ft 546 kts 124°
2026-05-04 22:07 -18.34980 131.66107 39041 ft 546 kts 124°
2026-05-04 22:08 -18.38631 131.73110 39039 ft 545 kts 124°
2026-05-04 22:08 -18.42278 131.80112 39044 ft 545 kts 124°
2026-05-04 22:09 -18.45919 131.87112 39043 ft 545 kts 124°
2026-05-04 22:09 -18.49557 131.94117 39042 ft 545 kts 124°
2026-05-04 22:10 -18.53188 132.01113 39040 ft 545 kts 124°
2026-05-04 22:10 -18.56824 132.08125 39035 ft 545 kts 123°
2026-05-04 22:11 -18.60459 132.15148 39046 ft 546 kts 123°
2026-05-04 22:11 -18.64101 132.22185 39052 ft 547 kts 123°
2026-05-04 22:12 -18.67745 132.29239 39054 ft 548 kts 123°
2026-05-04 22:12 -18.71389 132.36299 39081 ft 548 kts 123°
2026-05-04 22:13 -18.75034 132.43368 39098 ft 549 kts 123°
2026-05-04 22:13 -18.78679 132.50447 39102 ft 549 kts 123°
2026-05-04 22:14 -18.82317 132.57537 39102 ft 550 kts 123°
2026-05-04 22:14 -18.85950 132.64646 39098 ft 550 kts 123°
2026-05-04 22:15 -18.89587 132.71762 39109 ft 551 kts 123°
2026-05-04 22:15 -18.92611 132.77684 39109 ft 551 kts 123°
2026-05-04 22:16 -18.96245 132.84813 39110 ft 552 kts 123°
2026-05-04 22:16 -18.99884 132.91958 39112 ft 552 kts 123°
2026-05-04 22:17 -19.03526 132.99113 39111 ft 553 kts 123°
2026-05-04 22:17 -19.07168 133.06275 39114 ft 553 kts 122°
2026-05-04 22:18 -19.10809 133.13449 39115 ft 554 kts 122°
2026-05-04 22:18 -19.14449 133.20631 39116 ft 555 kts 122°
2026-05-04 22:19 -19.18098 133.27833 39116 ft 556 kts 122°
2026-05-04 22:19 -19.21749 133.35049 39118 ft 557 kts 122°
2026-05-04 22:20 -19.25404 133.42283 39118 ft 558 kts 122°
2026-05-04 22:20 -19.29059 133.49526 39123 ft 558 kts 122°
2026-05-04 22:21 -19.32691 133.56736 39126 ft 559 kts 122°
2026-05-04 22:21 -19.36352 133.64010 39123 ft 560 kts 122°
2026-05-04 22:22 -19.40020 133.71307 39127 ft 562 kts 121°
2026-05-04 22:22 -19.43688 133.78611 39130 ft 562 kts 121°
2026-05-04 22:23 -19.47361 133.85941 39129 ft 563 kts 121°
2026-05-04 22:23 -19.51038 133.93282 39133 ft 564 kts 121°
2026-05-04 22:24 -19.54714 134.00634 39132 ft 565 kts 121°
2026-05-04 22:24 -19.58396 134.08005 39144 ft 566 kts 121°
2026-05-04 22:25 -19.62081 134.15392 39144 ft 567 kts 121°
2026-05-04 22:25 -19.65841 134.22730 39144 ft 566 kts 123°
2026-05-04 22:26 -19.69823 134.29941 39141 ft 566 kts 124°
2026-05-04 22:26 -19.73784 134.37165 39137 ft 567 kts 123°
2026-05-04 22:27 -19.77696 134.44371 39130 ft 567 kts 123°
2026-05-04 22:27 -19.81648 134.51671 39149 ft 567 kts 123°
2026-05-04 22:28 -19.85577 134.58931 39147 ft 567 kts 123°
2026-05-04 22:28 -19.89474 134.66144 39149 ft 567 kts 123°
2026-05-04 22:29 -19.93400 134.73418 39149 ft 567 kts 123°
2026-05-04 22:29 -19.97323 134.80699 39148 ft 567 kts 122°
2026-05-04 22:30 -20.01240 134.87978 39142 ft 568 kts 122°
2026-05-04 22:30 -20.05162 134.95279 39131 ft 569 kts 122°
2026-05-04 22:31 -20.09090 135.02594 39139 ft 570 kts 122°
2026-05-04 22:31 -20.13021 135.09924 39144 ft 571 kts 122°
2026-05-04 22:32 -20.16954 135.17267 39154 ft 571 kts 122°
2026-05-04 22:32 -20.20891 135.24624 39153 ft 572 kts 122°
2026-05-04 22:33 -20.24826 135.31994 39159 ft 573 kts 122°
2026-05-04 22:33 -20.28769 135.39387 39158 ft 574 kts 122°
2026-05-04 22:34 -20.32713 135.46793 39159 ft 575 kts 122°
2026-05-04 22:34 -20.36657 135.54208 39163 ft 575 kts 122°
2026-05-04 22:35 -20.40597 135.61624 39168 ft 575 kts 122°
2026-05-04 22:35 -20.44539 135.69052 39167 ft 575 kts 121°
2026-05-04 22:36 -20.48477 135.76484 39164 ft 575 kts 121°
2026-05-04 22:36 -20.52409 135.83911 39164 ft 575 kts 121°
2026-05-04 22:37 -20.56341 135.91349 39157 ft 575 kts 121°
2026-05-04 22:37 -20.60266 135.98785 39154 ft 575 kts 121°
2026-05-04 22:38 -20.64161 136.06177 39155 ft 575 kts 121°
2026-05-04 22:38 -20.68107 136.13673 39145 ft 575 kts 121°
2026-05-04 22:39 -20.72027 136.21121 39153 ft 576 kts 121°
2026-05-04 22:39 -20.75915 136.28532 39174 ft 575 kts 121°
2026-05-04 22:40 -20.79820 136.36004 39176 ft 576 kts 121°
2026-05-04 22:40 -20.83725 136.43476 39177 ft 576 kts 120°
2026-05-04 22:41 -20.87624 136.50953 39177 ft 576 kts 120°
2026-05-04 22:41 -20.91525 136.58439 39176 ft 576 kts 120°
2026-05-04 22:42 -20.95423 136.65928 39174 ft 576 kts 120°
2026-05-04 22:42 -20.99318 136.73421 39173 ft 576 kts 120°
2026-05-04 22:43 -21.03205 136.80915 39181 ft 576 kts 120°
2026-05-04 22:43 -21.07091 136.88420 39172 ft 576 kts 120°
2026-05-04 22:44 -21.10976 136.95923 39166 ft 576 kts 120°
2026-05-04 22:44 -21.14859 137.03433 39168 ft 577 kts 120°
2026-05-04 22:45 -21.18743 137.10962 39171 ft 577 kts 120°
2026-05-04 22:45 -21.24564 137.22263 39171 ft 578 kts 120°
2026-05-04 22:46 -21.28452 137.29818 39174 ft 579 kts 120°
2026-05-04 22:46 -21.32340 137.37390 39174 ft 580 kts 120°
2026-05-04 22:47 -21.36230 137.44973 39177 ft 580 kts 120°
2026-05-04 22:47 -21.40122 137.52570 39172 ft 581 kts 120°
2026-05-04 22:48 -21.44014 137.60178 39165 ft 582 kts 120°
2026-05-04 22:48 -21.47899 137.67791 39163 ft 582 kts 119°
2026-05-04 22:49 -21.51789 137.75417 39164 ft 582 kts 119°
2026-05-04 22:49 -21.55688 137.83050 39160 ft 583 kts 121°
2026-05-04 22:50 -21.60494 137.90011 39161 ft 579 kts 137°
2026-05-04 22:50 -21.66465 137.95629 39163 ft 573 kts 147°
2026-05-04 22:51 -21.72752 138.00897 39164 ft 573 kts 147°
2026-05-04 22:51 -21.79043 138.06188 39163 ft 574 kts 147°
2026-05-04 22:52 -21.85342 138.11482 39168 ft 575 kts 147°
2026-05-04 22:52 -21.91639 138.16779 39171 ft 575 kts 147°
2026-05-04 22:53 -21.97944 138.22086 39172 ft 575 kts 147°
2026-05-04 22:53 -22.04245 138.27400 39171 ft 575 kts 147°
2026-05-04 22:54 -22.10547 138.32721 39171 ft 575 kts 147°
2026-05-04 22:54 -22.16840 138.38038 39171 ft 575 kts 147°
2026-05-04 22:55 -22.23135 138.43365 39168 ft 575 kts 147°
2026-05-04 22:55 -22.29428 138.48694 39161 ft 575 kts 146°
2026-05-04 22:56 -22.35714 138.54026 39164 ft 575 kts 146°
2026-05-04 22:56 -22.42004 138.59366 39164 ft 575 kts 146°
2026-05-04 22:57 -22.48292 138.64711 39165 ft 575 kts 146°
2026-05-04 22:57 -22.54572 138.70053 39164 ft 575 kts 146°
2026-05-04 22:58 -22.60860 138.75410 39159 ft 575 kts 146°
2026-05-04 22:58 -22.67143 138.80777 39162 ft 576 kts 146°
2026-05-04 22:59 -22.73436 138.86150 39164 ft 576 kts 146°
2026-05-04 22:59 -22.79722 138.91525 39166 ft 576 kts 146°
2026-05-04 23:00 -22.86012 138.96911 39168 ft 576 kts 146°
2026-05-04 23:00 -22.92303 139.02303 39164 ft 576 kts 146°
2026-05-04 23:01 -22.98594 139.07702 39163 ft 577 kts 146°
2026-05-04 23:01 -23.04889 139.13111 39160 ft 577 kts 146°
2026-05-04 23:02 -23.11179 139.18521 39164 ft 577 kts 146°
2026-05-04 23:02 -23.17472 139.23944 39168 ft 578 kts 146°
2026-05-04 23:03 -23.22711 139.28463 39167 ft 578 kts 146°
2026-05-04 23:03 -23.29019 139.33910 39160 ft 579 kts 146°
2026-05-04 23:04 -23.35337 139.39370 39166 ft 580 kts 146°
2026-05-04 23:04 -23.41660 139.44842 39161 ft 582 kts 145°
2026-05-04 23:05 -23.47996 139.50334 39164 ft 583 kts 145°
2026-05-04 23:05 -23.54344 139.55843 39166 ft 583 kts 145°
2026-05-04 23:06 -23.60692 139.61359 39162 ft 584 kts 145°
2026-05-04 23:06 -23.67054 139.66891 39164 ft 585 kts 145°
2026-05-04 23:07 -23.73426 139.72442 39169 ft 586 kts 145°
2026-05-04 23:07 -23.79806 139.78008 39165 ft 587 kts 145°
2026-05-04 23:08 -23.86192 139.83585 39166 ft 588 kts 145°
2026-05-04 23:08 -23.92580 139.89171 39167 ft 589 kts 145°
2026-05-04 23:09 -23.98974 139.94771 39168 ft 589 kts 145°
2026-05-04 23:09 -24.05371 140.00378 39172 ft 589 kts 145°
2026-05-04 23:10 -24.11768 140.05994 39173 ft 589 kts 145°
2026-05-04 23:10 -24.18162 140.11616 39173 ft 589 kts 145°
2026-05-04 23:11 -24.24546 140.17235 39171 ft 589 kts 145°
2026-05-04 23:11 -24.30927 140.22860 39169 ft 588 kts 145°
2026-05-04 23:12 -24.37302 140.28487 39173 ft 588 kts 145°
2026-05-04 23:12 -24.43670 140.34114 39173 ft 588 kts 145°
2026-05-04 23:13 -24.50040 140.39751 39173 ft 588 kts 144°
2026-05-04 23:13 -24.56405 140.45391 39164 ft 588 kts 144°
2026-05-04 23:14 -24.62779 140.51046 39168 ft 589 kts 144°
2026-05-04 23:14 -24.69157 140.56711 39172 ft 590 kts 144°
2026-05-04 23:15 -24.75536 140.62388 39177 ft 590 kts 144°
2026-05-04 23:15 -24.81874 140.68036 39180 ft 590 kts 144°
2026-05-04 23:16 -24.88257 140.73730 39181 ft 590 kts 144°
2026-05-04 23:16 -24.94633 140.79425 39178 ft 591 kts 144°
2026-05-04 23:17 -25.01016 140.85137 39176 ft 591 kts 144°
2026-05-04 23:17 -25.07392 140.90850 39173 ft 591 kts 144°
2026-05-04 23:18 -25.13775 140.96576 39175 ft 591 kts 144°
2026-05-04 23:18 -25.20153 141.02304 39175 ft 592 kts 144°
2026-05-04 23:19 -25.26536 141.08046 39181 ft 592 kts 144°
2026-05-04 23:19 -25.32920 141.13791 39183 ft 592 kts 144°
2026-05-04 23:20 -25.39310 141.19563 39179 ft 593 kts 144°
2026-05-04 23:20 -25.45691 141.25339 39182 ft 593 kts 144°
2026-05-04 23:21 -25.52087 141.31125 39177 ft 594 kts 144°
2026-05-04 23:21 -25.58488 141.36920 39177 ft 595 kts 144°
2026-05-04 23:22 -25.64903 141.42740 39183 ft 596 kts 144°
2026-05-04 23:22 -25.71322 141.48575 39184 ft 597 kts 144°
2026-05-04 23:23 -25.77745 141.54420 39181 ft 598 kts 144°
2026-05-04 23:23 -25.84174 141.60280 39182 ft 599 kts 143°
2026-05-04 23:24 -25.90616 141.66162 39184 ft 600 kts 143°
2026-05-04 23:24 -25.97061 141.72051 39180 ft 600 kts 143°
2026-05-04 23:25 -26.03510 141.77956 39181 ft 601 kts 143°
2026-05-04 23:25 -26.09963 141.83875 39195 ft 601 kts 143°
2026-05-04 23:26 -26.16408 141.89794 39191 ft 601 kts 143°
2026-05-04 23:26 -26.22860 141.95724 39202 ft 601 kts 143°
2026-05-04 23:27 -26.29303 142.01658 39204 ft 601 kts 143°
2026-05-04 23:27 -26.35743 142.07596 39199 ft 601 kts 143°
2026-05-04 23:28 -26.42179 142.13540 39187 ft 601 kts 143°
2026-05-04 23:28 -26.48614 142.19493 39190 ft 600 kts 143°
2026-05-04 23:29 -26.55036 142.25442 39194 ft 600 kts 143°
2026-05-04 23:29 -26.61456 142.31399 39199 ft 600 kts 143°
2026-05-04 23:30 -26.67871 142.37361 39199 ft 600 kts 143°
2026-05-04 23:30 -26.74290 142.43331 39199 ft 599 kts 143°
2026-05-04 23:31 -26.80692 142.49299 39202 ft 599 kts 143°
2026-05-04 23:31 -26.87097 142.55279 39202 ft 599 kts 143°
2026-05-04 23:32 -26.93491 142.61257 39204 ft 599 kts 143°
2026-05-04 23:32 -26.99881 142.67240 39207 ft 599 kts 143°
2026-05-04 23:33 -27.06273 142.73234 39216 ft 598 kts 143°
2026-05-04 23:33 -27.12653 142.79226 39215 ft 598 kts 143°
2026-05-04 23:34 -27.19024 142.85219 39214 ft 597 kts 143°
2026-05-04 23:34 -27.25392 142.91218 39198 ft 597 kts 143°
2026-05-04 23:35 -27.31756 142.97222 39201 ft 597 kts 143°
2026-05-04 23:35 -27.38118 143.03235 39196 ft 597 kts 143°
2026-05-04 23:36 -27.44475 143.09251 39197 ft 597 kts 143°
2026-05-04 23:36 -27.50832 143.15278 39190 ft 598 kts 143°
2026-05-04 23:37 -27.57201 143.21324 39190 ft 598 kts 143°
2026-05-04 23:37 -27.63561 143.27375 39199 ft 599 kts 143°
2026-05-04 23:38 -27.69926 143.33437 39183 ft 599 kts 143°
2026-05-04 23:38 -27.76304 143.39520 39195 ft 600 kts 143°
2026-05-04 23:39 -27.82687 143.45615 39189 ft 602 kts 143°
2026-05-04 23:39 -27.89088 143.51741 39196 ft 603 kts 143°
2026-05-04 23:40 -27.95488 143.57878 39213 ft 604 kts 143°
2026-05-04 23:40 -28.01892 143.64026 39222 ft 605 kts 143°
2026-05-04 23:41 -28.08308 143.70197 39230 ft 605 kts 143°
2026-05-04 23:41 -28.14722 143.76374 39233 ft 605 kts 143°
2026-05-04 23:42 -28.21137 143.82563 39231 ft 605 kts 143°
2026-05-04 23:42 -28.27543 143.88753 39232 ft 605 kts 143°
2026-05-04 23:43 -28.33904 143.94911 39228 ft 605 kts 143°
2026-05-04 23:43 -28.40301 144.01113 39232 ft 604 kts 143°
2026-05-04 23:44 -28.46695 144.07322 39228 ft 604 kts 143°
2026-05-04 23:44 -28.53071 144.13524 39234 ft 604 kts 143°
2026-05-04 23:45 -28.59447 144.19736 39237 ft 603 kts 143°
2026-05-04 23:45 -28.65813 144.25950 39237 ft 602 kts 143°
2026-05-04 23:46 -28.72166 144.32160 39242 ft 601 kts 143°
2026-05-04 23:46 -28.77431 144.37315 39240 ft 600 kts 143°
2026-05-04 23:47 -28.83757 144.43518 39241 ft 599 kts 143°
2026-05-04 23:47 -28.90073 144.49719 39236 ft 598 kts 143°
2026-05-04 23:48 -28.96368 144.55907 39233 ft 597 kts 143°
2026-05-04 23:48 -29.02918 144.61633 39229 ft 588 kts 154°
2026-05-04 23:49 -29.09828 144.66610 39233 ft 587 kts 153°
2026-05-04 23:49 -29.16714 144.71609 39227 ft 586 kts 153°
2026-05-04 23:50 -29.23590 144.76602 39221 ft 585 kts 153°
2026-05-04 23:50 -29.30454 144.81593 39222 ft 583 kts 153°
2026-05-04 23:51 -29.37298 144.86578 39216 ft 583 kts 153°
2026-05-04 23:51 -29.44128 144.91563 39213 ft 582 kts 153°
2026-05-04 23:52 -29.50953 144.96552 39181 ft 582 kts 153°
2026-05-04 23:52 -29.57771 145.01545 39175 ft 581 kts 153°
2026-05-04 23:53 -29.64588 145.06547 39171 ft 581 kts 153°
2026-05-04 23:53 -29.71396 145.11549 39176 ft 581 kts 153°
2026-05-04 23:54 -29.78203 145.16557 39179 ft 580 kts 153°
2026-05-04 23:54 -29.84953 145.21533 39172 ft 580 kts 153°
2026-05-04 23:55 -29.91751 145.26550 39175 ft 581 kts 153°
2026-05-04 23:56 -30.01966 145.34106 39175 ft 582 kts 153°
2026-05-04 23:56 -30.08771 145.39152 39212 ft 580 kts 153°
2026-05-04 23:57 -30.15555 145.44189 39204 ft 580 kts 153°
2026-05-04 23:57 -30.22344 145.49239 39198 ft 580 kts 153°
2026-05-04 23:58 -30.29131 145.54295 39194 ft 580 kts 153°
2026-05-04 23:58 -30.35912 145.59356 39198 ft 580 kts 153°
2026-05-04 23:59 -30.42692 145.64423 39192 ft 580 kts 153°
2026-05-04 23:59 -30.49465 145.69496 39194 ft 580 kts 153°
2026-05-05 00:00 -30.56241 145.74576 39210 ft 579 kts 153°
2026-05-05 00:00 -30.62999 145.79656 39202 ft 579 kts 153°
2026-05-05 00:01 -30.69760 145.84744 39208 ft 578 kts 153°
2026-05-05 00:01 -30.76497 145.89823 39219 ft 577 kts 153°
2026-05-05 00:02 -30.83224 145.94904 39225 ft 576 kts 153°
2026-05-05 00:02 -30.89935 145.99981 39227 ft 575 kts 153°
2026-05-05 00:03 -30.96632 146.05054 39212 ft 574 kts 153°
2026-05-05 00:03 -31.03316 146.10126 39244 ft 572 kts 152°
2026-05-05 00:04 -31.09921 146.15165 39200 ft 560 kts 152°
2026-05-05 00:04 -31.16420 146.20105 39204 ft 556 kts 152°
2026-05-05 00:05 -31.22903 146.25044 39192 ft 557 kts 152°
2026-05-05 00:05 -31.29386 146.29997 39202 ft 555 kts 152°
2026-05-05 00:06 -31.35793 146.34902 39178 ft 554 kts 152°
2026-05-05 00:06 -31.42238 146.39842 39179 ft 553 kts 151°
2026-05-05 00:07 -31.48672 146.44780 39201 ft 553 kts 151°
2026-05-05 00:07 -31.55097 146.49721 39196 ft 552 kts 151°
2026-05-05 00:08 -31.61512 146.54666 39187 ft 552 kts 151°
2026-05-05 00:08 -31.67966 146.59647 39183 ft 551 kts 151°
2026-05-05 00:09 -31.74328 146.64565 39181 ft 551 kts 151°
2026-05-05 00:09 -31.80720 146.69517 39191 ft 551 kts 151°
2026-05-05 00:10 -31.87117 146.74477 39183 ft 551 kts 151°
2026-05-05 00:10 -31.93504 146.79441 39183 ft 550 kts 151°
2026-05-05 00:11 -31.99892 146.84413 39182 ft 550 kts 151°
2026-05-05 00:11 -32.06274 146.89391 39214 ft 549 kts 150°
2026-05-05 00:12 -32.12645 146.94366 39208 ft 549 kts 151°
2026-05-05 00:12 -32.19011 146.99344 39207 ft 548 kts 151°
2026-05-05 00:13 -32.25364 147.04321 39200 ft 548 kts 151°
2026-05-05 00:13 -32.31705 147.09298 39209 ft 547 kts 151°
2026-05-05 00:14 -32.38045 147.14282 39191 ft 547 kts 151°
2026-05-05 00:14 -32.44378 147.19274 39194 ft 547 kts 151°
2026-05-05 00:15 -32.50707 147.24264 39194 ft 547 kts 151°
2026-05-05 00:15 -32.57038 147.29270 39186 ft 547 kts 151°
2026-05-05 00:16 -32.63363 147.34277 39188 ft 547 kts 151°
2026-05-05 00:16 -32.69689 147.39294 39186 ft 546 kts 150°
2026-05-05 00:17 -32.76005 147.44311 39202 ft 546 kts 150°
2026-05-05 00:17 -32.82325 147.49340 39190 ft 547 kts 150°
2026-05-05 00:18 -32.88643 147.54377 39189 ft 547 kts 150°
2026-05-05 00:18 -32.94963 147.59424 39197 ft 547 kts 150°
2026-05-05 00:19 -33.01279 147.64478 39197 ft 547 kts 150°
2026-05-05 00:19 -33.07594 147.69539 39203 ft 547 kts 150°
2026-05-05 00:20 -33.13908 147.74605 39196 ft 547 kts 150°
2026-05-05 00:20 -33.19579 147.79168 39210 ft 547 kts 150°
2026-05-05 00:21 -33.25886 147.84245 39210 ft 546 kts 150°
2026-05-05 00:21 -33.32186 147.89325 39207 ft 546 kts 150°
2026-05-05 00:22 -33.38100 147.95080 39203 ft 551 kts 139°
2026-05-05 00:22 -33.43351 148.01795 39207 ft 553 kts 135°
2026-05-05 00:23 -33.48586 148.08546 39183 ft 553 kts 135°
2026-05-05 00:23 -33.53807 148.15310 39194 ft 553 kts 135°
2026-05-05 00:24 -33.59019 148.22099 39182 ft 553 kts 135°
2026-05-05 00:24 -33.64156 148.28809 39177 ft 554 kts 135°
2026-05-05 00:25 -33.69366 148.35623 39179 ft 554 kts 135°
2026-05-05 00:25 -33.74568 148.42439 39178 ft 553 kts 135°
2026-05-05 00:26 -33.79766 148.49262 39180 ft 553 kts 135°
2026-05-05 00:26 -33.84953 148.56087 39177 ft 553 kts 135°
2026-05-05 00:27 -33.90148 148.62932 39168 ft 554 kts 135°
2026-05-05 00:27 -33.95336 148.69783 39168 ft 554 kts 135°
2026-05-05 00:28 -34.00524 148.76650 39171 ft 554 kts 135°
2026-05-05 00:28 -34.05708 148.83524 39180 ft 554 kts 135°
2026-05-05 00:29 -34.10886 148.90401 39174 ft 554 kts 135°
2026-05-05 00:29 -34.16058 148.97284 39171 ft 554 kts 135°
2026-05-05 00:30 -34.21220 149.04169 39157 ft 553 kts 135°
2026-05-05 00:30 -34.23714 149.07500 38950 ft 547 kts 135°
2026-05-05 00:30 -34.26201 149.10824 38708 ft 542 kts 135°
2026-05-05 00:30 -34.28723 149.14199 38460 ft 542 kts 135°
2026-05-05 00:31 -34.31255 149.17590 38211 ft 543 kts 135°
2026-05-05 00:31 -34.33783 149.20978 37891 ft 542 kts 135°
2026-05-05 00:31 -34.36310 149.24369 37236 ft 542 kts 135°
2026-05-05 00:31 -34.38840 149.27766 36452 ft 544 kts 135°
2026-05-05 00:32 -34.41238 149.31327 35458 ft 548 kts 126°
2026-05-05 00:32 -34.43142 149.35354 34134 ft 555 kts 113°
2026-05-05 00:32 -34.44393 149.39742 33274 ft 548 kts 101°
2026-05-05 00:32 -34.44974 149.44244 32816 ft 533 kts 93°
2026-05-05 00:33 -34.45282 149.48679 32264 ft 527 kts 92°
2026-05-05 00:33 -34.45616 149.53111 31367 ft 530 kts 94°
2026-05-05 00:33 -34.46033 149.57538 30739 ft 526 kts 95°
2026-05-05 00:33 -34.46504 149.61900 30213 ft 519 kts 96°
2026-05-05 00:34 -34.46983 149.66070 29535 ft 516 kts 96°
2026-05-05 00:34 -34.47488 149.70361 28850 ft 512 kts 96°
2026-05-05 00:34 -34.47991 149.74614 28156 ft 508 kts 96°
2026-05-05 00:34 -34.48489 149.78837 27475 ft 504 kts 96°
2026-05-05 00:35 -34.48980 149.83023 26795 ft 499 kts 96°
2026-05-05 00:35 -34.49465 149.87164 26120 ft 495 kts 96°
2026-05-05 00:35 -34.49754 149.91283 25444 ft 487 kts 86°
2026-05-05 00:35 -34.49391 149.95313 24787 ft 477 kts 74°
2026-05-05 00:36 -34.48375 149.99071 24115 ft 461 kts 60°
2026-05-05 00:36 -34.46837 150.02391 23514 ft 444 kts 52°
2026-05-05 00:36 -34.45188 150.05497 22907 ft 433 kts 52°
2026-05-05 00:36 -34.43615 150.08568 22350 ft 426 kts 54°
2026-05-05 00:37 -34.42121 150.11661 21694 ft 425 kts 56°
2026-05-05 00:37 -34.40682 150.14783 21092 ft 423 kts 57°
2026-05-05 00:37 -34.39280 150.17903 20482 ft 421 kts 58°
2026-05-05 00:37 -34.37897 150.21010 19885 ft 418 kts 58°
2026-05-05 00:38 -34.36525 150.24095 19276 ft 415 kts 58°
2026-05-05 00:38 -34.35163 150.27154 18672 ft 411 kts 58°
2026-05-05 00:38 -34.33810 150.30186 18074 ft 408 kts 58°
2026-05-05 00:38 -34.32466 150.33194 17475 ft 405 kts 58°
2026-05-05 00:39 -34.31132 150.36179 16883 ft 402 kts 58°
2026-05-05 00:39 -34.29847 150.39050 16309 ft 398 kts 58°
2026-05-05 00:39 -34.28531 150.41985 15722 ft 395 kts 58°
2026-05-05 00:39 -34.27231 150.44889 15137 ft 391 kts 58°
2026-05-05 00:40 -34.25942 150.47774 14558 ft 388 kts 58°
2026-05-05 00:40 -34.24668 150.50625 13984 ft 384 kts 58°
2026-05-05 00:40 -34.23404 150.53446 13423 ft 380 kts 58°
2026-05-05 00:40 -34.22151 150.56242 12870 ft 376 kts 58°
2026-05-05 00:41 -34.20913 150.59005 12320 ft 373 kts 58°
2026-05-05 00:41 -34.19687 150.61742 11774 ft 369 kts 58°
2026-05-05 00:41 -34.18468 150.64457 11232 ft 365 kts 58°
2026-05-05 00:41 -34.17259 150.67148 10510 ft 366 kts 59°
2026-05-05 00:42 -34.16052 150.69830 10148 ft 357 kts 59°
2026-05-05 00:42 -34.14892 150.72403 10004 ft 341 kts 60°
2026-05-05 00:42 -34.13780 150.74872 9862 ft 327 kts 59°
2026-05-05 00:42 -34.12718 150.77231 9742 ft 314 kts 59°
2026-05-05 00:43 -34.11691 150.79510 9478 ft 306 kts 60°
2026-05-05 00:43 -34.10667 150.81775 9041 ft 307 kts 60°
2026-05-05 00:43 -34.09665 150.84004 8778 ft 301 kts 60°
2026-05-05 00:43 -34.08664 150.86223 8445 ft 299 kts 60°
2026-05-05 00:44 -34.07675 150.88415 8120 ft 297 kts 60°
2026-05-05 00:44 -34.06706 150.90568 7797 ft 295 kts 60°
2026-05-05 00:44 -34.05721 150.92747 7354 ft 296 kts 60°
2026-05-05 00:44 -34.04734 150.94932 7128 ft 296 kts 60°
2026-05-05 00:45 -34.03742 150.97127 6820 ft 294 kts 62°
2026-05-05 00:45 -34.03107 150.99446 6501 ft 293 kts 85°
2026-05-05 00:45 -34.03318 151.01823 6192 ft 290 kts 111°
2026-05-05 00:45 -34.04350 151.03896 5896 ft 284 kts 134°
2026-05-05 00:46 -34.05758 151.05550 5580 ft 281 kts 141°
2026-05-05 00:46 -34.07255 151.07067 5274 ft 278 kts 149°
2026-05-05 00:46 -34.08974 151.08057 4984 ft 273 kts 167°
2026-05-05 00:46 -34.10814 151.08496 4681 ft 268 kts 173°
2026-05-05 00:47 -34.12645 151.08926 4398 ft 268 kts 171°
2026-05-05 00:47 -34.14463 151.09398 4105 ft 265 kts 171°
2026-05-05 00:47 -34.16252 151.09894 3817 ft 263 kts 166°
2026-05-05 00:47 -34.17852 151.11009 3533 ft 271 kts 138°
2026-05-05 00:48 -34.18852 151.12884 3240 ft 276 kts 110°
2026-05-05 00:48 -34.19046 151.15176 2946 ft 277 kts 83°
2026-05-05 00:48 -34.18621 151.17450 2855 ft 275 kts 75°
2026-05-05 00:48 -34.18088 151.19620 2768 ft 264 kts 71°
2026-05-05 00:49 -34.17181 151.21447 2671 ft 253 kts 42°
2026-05-05 00:49 -34.15712 151.22439 2574 ft 232 kts
2026-05-05 00:49 -34.14185 151.22563 2473 ft 216 kts 351°
2026-05-05 00:49 -34.12737 151.22313 2401 ft 204 kts 344°
2026-05-05 00:50 -34.11431 151.21981 2203 ft 183 kts 342°
2026-05-05 00:50 -34.10194 151.21653 1989 ft 182 kts 343°
2026-05-05 00:50 -34.08959 151.21330 1968 ft 182 kts 342°
2026-05-05 00:50 -34.07721 151.21006 1972 ft 181 kts 343°
2026-05-05 00:51 -34.06525 151.20698 1964 ft 172 kts 342°
2026-05-05 00:51 -34.05369 151.20394 1861 ft 170 kts 342°
2026-05-05 00:51 -34.04227 151.20099 1636 ft 164 kts 342°
2026-05-05 00:51 -34.03162 151.19821 1416 ft 149 kts 342°
2026-05-05 00:52 -34.02177 151.19563 1220 ft 141 kts 341°
2026-05-05 00:52 -34.01237 151.19317 1033 ft 138 kts 341°
2026-05-05 00:52 -34.00298 151.19072 848 ft 138 kts 341°
2026-05-05 00:52 -33.99361 151.18828 669 ft 137 kts 342°
2026-05-05 00:53 -33.98428 151.18587 477 ft 137 kts 342°
2026-05-05 00:53 -33.97480 151.18345 304 ft 143 kts 341°
2026-05-05 00:53 -33.96525 151.18092 83 ft 137 kts 342°
2026-05-05 00:53 -33.95632 151.17852 34 ft 113 kts 348°
2026-05-05 00:54 -33.94992 151.17687 33 ft 79 kts 348°
2026-05-05 00:54 -33.94534 151.17574 35 ft 57 kts 347°
2026-05-05 00:54 -33.94192 151.17485 35 ft 35 kts 348°
2026-05-05 00:54 -33.94072 151.17453 31 ft 19 kts 348°
2026-05-05 00:55 -33.93960 151.17424 31 ft 6 kts 340°
2026-05-05 00:55 -33.93940 151.17400 31 ft 8 kts 289°
2026-05-05 00:55 -33.93944 151.17336 32 ft 8 kts 254°
2026-05-05 00:55 -33.93959 151.17267 33 ft 8 kts 268°
2026-05-05 00:56 -33.93939 151.17220 34 ft 6 kts 329°
2026-05-05 00:56 -33.93885 151.17201 34 ft 10 kts 349°
2026-05-05 00:56 -33.93799 151.17181 34 ft 15 kts 348°
2026-05-05 00:56 -33.93702 151.17155 34 ft 14 kts 347°
2026-05-05 00:57 -33.93616 151.17133 34 ft 11 kts 347°
2026-05-05 00:57 -33.93564 151.17119 34 ft 12 kts 347°
2026-05-05 00:57 -33.93505 151.17088 34 ft 8 kts 302°
2026-05-05 00:57 -33.93502 151.17032 35 ft 3 kts 256°
2026-05-05 00:58 -33.93513 151.17000 35 ft 5 kts 225°
2026-05-05 00:58 -33.93536 151.16989 35 ft 4 kts 167°
2026-05-05 00:58 -33.93571 151.17001 35 ft 5 kts 167°
2026-05-05 00:58 -33.93596 151.17007 35 ft 3 kts 168°
2026-05-05 00:59 -33.93604 151.17009 35 ft 0 kts 168°